Regional Weather Roundup
Issued by NWS Columbia, SC

Home | Current Version | Previous Version | Text Only | Print | Product List | Glossary On
Versions: 1 2 3 4 5 6 7 8 9 10 11 12 13 14 15 16 17 18 19 20 21 22 23 24 25 26 27
000
ASUS42 KCAE 282010
RWRCAE
REGIONAL WEATHER ROUNDUP
NATIONAL WEATHER SERVICE COLUMBIA SC
400 PM EDT SUN MAY 28 2017

NOTE: "FAIR" INDICATES FEW OR NO CLOUDS BELOW 12,000 FEET WITH NO
SIGNIFICANT WEATHER AND/OR OBSTRUCTIONS TO VISIBILITY.

NOT ALL STATIONS ARE QUALITY CONTROLLED BY THE NATIONAL
WEATHER SERVICE. USE DATA WITH CAUTION...ESPECIALLY
DEWPOINT OBSERVATIONS.

SCZ001>056-GAZ040-063>065-077-282100-
...UPSTATE SOUTH CAROLINA...

CITY           SKY/WX    TMP DP  RH WIND       PRES   REMARKS
ANDERSON       CLOUDY    83  67  58 W14G24    29.88S
SPARTANBURG    PTSUNNY   81  64  57 SW6G16    29.86S
CLEMSON        MOSUNNY   81  67  62 SW8G17    29.89F
GREENVILLE     MOSUNNY   82  67  60 SW12      29.88S
GREENWOOD      CLOUDY    85  68  56 SW18      29.87F
GREER          PTSUNNY   82  68  62 SW10G21   29.86S
ROCK HILL      SUNNY     85  66  53 W12G21    29.86S
CHESTER        CLEAR     84  63  48 W10G16    29.86F
LAURENS        CLOUDY    82  68  61 W12G21    29.86F


...CENTRAL SOUTH CAROLINA...

CITY           SKY/WX    TMP DP  RH WIND       PRES   REMARKS
COLUMBIA APT   PTSUNNY   92  69  47 SW15      29.83F HX  97
COLUMBIA OWENS MOSUNNY   91  66  43 W16G23    29.85F
MCENTIRE ANGB  PTSUNNY   90  70  51 SW15G23   29.84F HX  95
ORANGEBURG     CLOUDY    89  69  51 W21G28    29.87F
SUMTER SHAW    PTSUNNY   92  69  47 SW23G29   29.81F HX  96
NEWBERRY       CLOUDY    86  70  58 SW17G26   29.88F
AIKEN          FAIR      86  70  58 SW15      29.90F
BARNWELL       MOCLDY    90  72  55 SW17G26   29.88F HX  96
MANNING        FAIR      90  73  58 SW21G31   29.85F HX  98
CAMDEN         FAIR      91  66  43 SW20      29.84S
LANCASTER      CLEAR     86  66  51 SW16G22   29.85F
WINNSBORO      PTCLDY    86  68  54 W6        29.86S


...EASTERN AND COASTAL SOUTH CAROLINA...

CITY           SKY/WX    TMP DP  RH WIND       PRES   REMARKS
MYRTLE BEACH   MOSUNNY   91  66  43 SW16      29.85F
N MYRTLE BCH   MOSUNNY   84  74  71 SW16G26   29.85F
CONWAY         FAIR      88  68  51 W10       29.85F
MARION         FAIR      90  64  43 SW14      29.84F
HARTSVILLE     FAIR      88  64  45 SW9G17    29.84S
FLORENCE       MOSUNNY   91  68  46 SW18G24   29.83F HX  95
DARLINGTON     MOSUNNY   91  67  44 SW14      29.83F
CHARLESTON APT PTSUNNY   89  69  51 W16       29.88F
MOUNT PLEASANT FAIR      90  73  58 SW10G20   29.88F HX  98
WALTERBORO     MOCLDY    86  72  62 SW10      29.90F
BEAUFORT       MOSUNNY   89  75  63 W12       29.90F HX  99


...EASTERN GEORGIA...

CITY           SKY/WX    TMP DP  RH WIND       PRES   REMARKS
AUGUSTA BUSH F CLOUDY    90  72  55 SW17G24   29.85F HX  97
AUGUSTA DANIEL PTSUNNY   90  68  48 SW12G18   29.87F
THOMSON        MOSUNNY   88  70  55 W13G21    29.91F
WASHINGTON       N/A     88  72  58 SW10G22   29.86F
CLAXTON        FAIR      89  73  58 SW8G20    29.92F HX  97
SYLVANIA       CLOUDY    89  73  58 W7G17     29.92F HX  97
STATESBORO     MOSUNNY   90  71  52 W10G22    29.92F HX  96
SAVANNAH       CLOUDY    95  69  42 W17G24    29.91F HX 100


...SOUTHERN NORTH CAROLINA...

CITY           SKY/WX    TMP DP  RH WIND       PRES   REMARKS
CHARLOTTE      PTSUNNY   84  65  52 W7        29.85S
MONROE         LGT RAIN  85  63  47 W15G23    29.84F
WADESBORO      CLEAR     87  64  46 SW8       29.83S
ROCKINGHAM     CLEAR     88  67  49 W9G25     29.84F
RUTHERFORDTON  PTSUNNY   80  67  64 S6        29.87S
ASHEVILLE      CLOUDY    77  60  55 N10       29.92R

$$




USA.gov is the U.S. government's official web portal to all federal, state and local government web resources and services.